Regional Weather Roundup
Issued by NWS

Home | Current Version | Previous Version | Text Only | Print | Product List | Glossary Off
Versions: 1 2 3 4 5 6 7 8 9 10 11 12 13 14 15 16 17 18 19 20 21 22 23 24 25 26 27 28 29 30 31 32 33 34 35 36 37 38 39 40 41 42 43 44 45 46 47 48 49 50

000
ASUS43 KIND 251309
RWRIN

WEATHER ROUNDUP FOR INDIANA
NATIONAL WEATHER SERVICE INDIANAPOLIS IN
900 AM EDT TUE APR 25 2017

NOTE: "FAIR" INDICATES FEW OR NO CLOUDS BELOW 12,000 FEET WITH NO
SIGNIFICANT WEATHER AND/OR OBSTRUCTIONS TO VISIBILITY.

* - STATION DOES NOT REPORT WEATHER SUCH AS PRECIPITATION OR FOG.

+ - STATION NOT QUALITY CONTROLLED BY THE NATIONAL WEATHER SERVICE.
    USE DATA WITH CAUTION...ESPECIALLY DEWPOINT AND RELATIVE
    HUMIDITY OBSERVATIONS.

INZ001>003-010>013-019-020-251400-
NORTHWEST INDIANA

CITY           SKY/WX    TMP DP  RH WIND       PRES   REMARKS
GARY /AIRPORT/ MOSUNNY   61  50  67 SE7G22    29.74S
KNOX *+        MOSUNNY   59  36  41 SE14      29.77S
LA PORTE +     MOSUNNY   57  51  80 SE9       29.77F
MICHIGAN CITY+ MOSUNNY   59  50  72 SE6       29.76F
MONTICELLO +   MOSUNNY   57  52  83 SE7       29.77S
RENSSELAER +   CLOUDY    59  54  82 SE10      29.76S
VALPARAISO     MOSUNNY   60  53  77 SE12      29.76F

$$

LMZ046-743>745-251400-
SOUTHERN LAKE MICHIGAN

STATION/POSITION TIME  TEMP    WIND        PRES    WAVE
                       AIR SEA DIR/SP/G            HT
                 (UTC) (F)     (DEG/KT/KT) (MB)    (FT)
BURNS HARBOR     1240   59     150/ 10/ 17 1007.8R
MICHIGAN CITY    1240   58     140/ 15/ 20   N/A

$$

INZ004-005-014>016-021>024-251400-
NORTH CENTRAL INDIANA

CITY           SKY/WX    TMP DP  RH WIND       PRES   REMARKS
ELKHART        SUNNY     57  48  72 SE6       29.79S
GOSHEN         SUNNY     57  48  72 SE13      29.80R
LOGANSPORT +   CLOUDY    57  54  88 SE10      29.80S
PERU/GRISSOM   SUNNY     59  56  91 SE9       29.78R
ROCHESTER +    SUNNY     59  52  77 SE12      29.80S
SOUTH BEND     MOSUNNY   56  49  77 SE9       29.80R
WARSAW +       SUNNY     55  50  82 SE8       29.80S

$$

INZ006>009-017-018-025>027-251400-
NORTHEAST INDIANA

CITY           SKY/WX    TMP DP  RH WIND       PRES   REMARKS
ANGOLA *+      CLOUDY    54  48  82 SE7       29.82S
AUBURN +       MOSUNNY   55  46  71 E6        29.82F
FORT WAYNE     MOSUNNY   57  48  72 SE12      29.81F
HUNTINGTON +   SUNNY     56  49  77 SE9       29.81R
KENDALLVILLE + SUNNY     55  49  79 SE9       29.81F

$$

INZ028-029-035-036-043>045-051>053-251400-
WEST CENTRAL INDIANA

CITY           SKY/WX    TMP DP  RH WIND       PRES   REMARKS
CRAWFORDSVL +  CLOUDY    58  54  86 SE10      29.77S
GREENCASTLE +  MOSUNNY   57  52  82 S8        29.79R
LAFAYETTE      MOSUNNY   59  54  83 SE7       29.76S
TERRE HAUTE    SUNNY     60  53  77 S10       29.76S

$$

INZ030>032-037>040-046>048-054>057-064-065-251400-
CENTRAL INDIANA

CITY           SKY/WX    TMP DP  RH WIND       PRES   REMARKS
ANDERSON       SUNNY     57  50  77 SE12      29.80
CP ATTERBURY + SUNNY     59  54  82 SE7       29.80S
COLUMBUS       MOSUNNY   57  52  82 SE6       29.80S
FRANKFORT +    MOSUNNY   63  55  77 S14       29.79S
GREENWOOD *+   SUNNY     59  53  80 SE8       29.80S
INDIANAPOLIS   MOSUNNY   59  54  83 SE10      29.79R
-EAGLE CREEK   SUNNY     60  53  77 SE8       29.79R
KOKOMO +       SUNNY     59  53  80 SE12      29.80R
MARION +       SUNNY     57  50  77 SE10      29.81R
MT COMFORT *+  SUNNY     57  52  82 SE10      29.80R
SHELBYVILLE    SUNNY     61  51  70 SE10      29.79S
ZIONSVILLE +   CLOUDY    58  53  84 SE7       29.80R

$$

INZ033-034-041-042-049-050-058-059-251400-
EAST CENTRAL INDIANA

CITY           SKY/WX    TMP DP  RH WIND       PRES   REMARKS
MUNCIE         SUNNY     59  50  72 SE12      29.80F
RICHMOND +     SUNNY     54  48  82 E10       29.83S

$$

INZ060-061-067>069-081>083-085>088-251400-
SOUTHWEST INDIANA

CITY           SKY/WX    TMP DP  RH WIND       PRES   REMARKS
EVANSVILLE     SUNNY     62  55  77 CALM      29.77S
HUNTINGBURG *+ SUNNY     60  55  83 SE7       29.78S
WASHINGTON +   SUNNY     59  53  80 MISG      29.77S

$$

INZ062-063-066-070>080-084-089>092-251400-
SOUTH CENTRAL AND SOUTHEAST INDIANA

CITY           SKY/WX    TMP DP  RH WIND       PRES   REMARKS
BLOOMINGTON    SUNNY     60  32  34 SE9       29.78S
MADISON *+     SUNNY     59  52  77 E6        29.83S
SEYMOUR +      SUNNY     61  54  77 SE7       29.80S

$$




USA.gov is the U.S. government's official web portal to all federal, state and local government web resources and services.